OBJECT E, 60749

Orbit data source: Space-Track

You're viewing an Uncataloged Satellite

Recently launched and/or uncataloged satellites may have evolving metadata. Metadata may include but not limited to: Owner, Maufacturer, Bus, Motor, and Mission.

OBJECT E, 60749 is a satellite owned by Taizhou Xingkong (CN) in SSO that was launched on Thu, 29 Aug 2024 UTC via a GUSHENXING 1 launch vehicle from the Yellow Sea Launch Area, China (YSLA). Unknown objects in Earth's orbit typically refer to objects detected orbiting the Earth but have not yet been identified or cataloged. These objects could be anything from previously untracked satellites, spent rocket stages, debris from satellite collisions, or even natural meteoroids temporarily captured by Earth's gravity.

Loading next visibility...
Identifier
60749, 2024-153E
Orbit
SSO
Last TLE update
8 hours ago
Origin
Flag of CNTZXK (CN / PRC)
Manufacturer
Shanghai ASES
Mission
Operational Commercial Imaging
Bus & Motor
SUXING, Unknown motor
Mass
~50 kg wet, ~50 kg dry
Launch date (UTC)
2024-08-29 (8 months ago)
Launch vehicle
GUSHENXING 1
Launch site
Yellow Sea Launch Area, China (YSLA)
Object type
Unknown
Shape & HBR
Box + 1 Pan, 5 m
Radar Cross Section
5.339 m², Medium (>0.1 m² and < 1m²)

Expand to show TLE details & history

TLE from 8 hours ago
0 OBJECT E
1 60749U 24153E   25129.53944544  .00017797  00000-0  74614-3 0  9994
2 60749  97.6319 254.4116 0014468 128.4937 231.7599 15.23473975 38400
Epoch: 2025-05-09T12:56Z
Definitive object data (Epoch: 2025-05-09T12:56:48.086Z)
Latitude
-0.00004°
Longitude
-167.38289°
Altitude
504.626 km
Speed
7.608 km/s
True Right ascension
16h 57m 38s
True Declination
0° 00' 00"
Sunlit
Object was in full shadow at TLE epoch
Visualization TLE readout
Latitude
82.20788°
Longitude
116.11358°
Altitude
501.134 km
Speed
7.625 km/s
Apparent Right ascension
16h 42m 06s
Apparent Declination
28° 07' 11"
Sunlit
Object is in daylight
Visualization observer readout
Local Sidereal Time
05:24:06
Azimuth
9.933° NNE
Elevation
-21.266°
Doppler factor
1
Orbital elements
Apogee altitude
502.283 km
Perigee altitude
482.402 km
Semi-major axis
6,870.48 km
Eccentricity
0.0014468
Inclination
97.6319°
RAAN
254.4116°
Arg. of periapsis
128.4937°
True anomaly
231.62983°
Mean anomaly
231.7599°
Eccentric anomaly
231.69485°
Mean motion
3.81121 °/min
BSTAR
0.00074614
Orbital period
94.46 mins
Loading maneuver chart data...
Loading SW <> Apogee altitude chart data...
Loading historical data...
Loading historical data...
Loading historical data...
Loading historical data...
Loading historical data...
Loading historical data...
Loading historical data...

OBJECT E Visibility forecast

Observer location: undefined°, undefined°

Span
Click to sort rows by Start time (UTC) header in descending order
Start Az.
Max El. time (UTC)
Max El. Az.
Max El.
End time (UTC)
End Az.
6 mins2025-05-09 21:22:50.686Z3.828° NNE2025-05-09 21:25:50.686Z312.283° NW39.659°2025-05-09 21:28:50.686Z208.091° SW
5 mins2025-05-10 08:00:50.686Z135.187° SSE2025-05-10 08:02:50.686Z58.87° ENE35.904°2025-05-10 08:05:50.686Z0.722° NNE
5 mins2025-05-10 21:02:50.686Z21.496° NNE2025-05-10 21:04:50.686Z70.479° E42.197°2025-05-10 21:07:50.686Z183.289° SSW
|